world map with FNCT marked

FNCT - Airport

This information may not be accurate or current and is not valid for navigation or flight planning. No warranty of fitness for any purpose is made or implied.

flag of Angola

Donate via PayPal

Additional information is available on the NEW Great Circle Mapper

Location
City:  Catumbela, Benguela, Angola
ICAO / IATA:FNCT / CBT

Details
Type:Airport (Aerodrome, Airfield)
Latitude:12°28'45"S (-12.479166)
Longitude:13°29'13"E (13.486944)
Runways:1
Longest:12139 × 98 ft (3700 × 30 m)

Time
Timezone:UTC+1 (DST+3)
Local Time:

Weather
METAR:FNCT  041200Z 29006KT 9999 BKN015 29/25 Q1011
TAF:FNCT  032310Z 0400/0412 18004KT 7000 BKN020 PROB30 TEMPO 0404/0408 VRB03KT 9000 SCT018 BKN050 BECMG 0408/0411 24008KT 9999 SCT020 FEW023CB BKN050

Related Locations
Nearby:
Farthest:PLPA: 11890 mi / 19136 km
Palmyra Island Atoll [Palmyra Airport (Cooper)], UM

Find:

   beyond  
but within

Other Information
Maps:
Sources:

  


 


Great Circle Mapper   Great Circle Mapper
Great Circle Mapper FAQ   Great Circle Mapper FAQ
  Karl's Home Page
KLSē   KLSē Home
   GC on Facebook
Airlines of the World   Airlines of the World
Donate via PayPal


Copyright © 2004-2019, Karl L. Swartz. All rights reserved.
All trademarks mentioned herein belong to their respective owners.

Please see credits for attribution and copyright information.

Karl Swartz <karl@kls2.com>
  Powered by FreeBSD
Valid HTML 4.01!
Labeled with ICRA
hCard Microformat
Geo Microformat